Simultaneous Nadir Overpasses (SNOs) Predictions

Prediction of SNOs between GOES-16 and METOP-B Satellite Orbit:

Table of predicted SNOs for the next 14.0 days since TLE Epoch: 2/28/2020
Index Date Time (GOES-16) GOES-16 Lat,Lon METOP-B Lat,Lon Distance(km) Time Diff (sec)
1 02/29/2020 02:15:40 0.01, -75.16 0.91, -71.10 462.00 80
2 03/01/2020 14:31:53 -0.02, -75.18 0.06, -75.67 55.78 80
3 03/04/2020 02:30:14 0.03, -75.18 -0.01, -75.26 10.86 80
4 03/06/2020 14:31:08 -0.03, -75.21 -0.10, -74.84 41.84 80
5 03/08/2020 02:47:28 0.04, -75.21 -0.93, -79.43 481.95 80
6 03/09/2020 02:29:30 0.03, -75.22 0.22, -74.45 88.38 80
7 03/10/2020 14:45:42 -0.04, -75.25 0.81, -79.01 428.09 80
8 03/11/2020 14:27:44 -0.03, -75.27 -0.33, -74.02 142.67 80
9 03/13/2020 02:44:04 0.04, -75.28 -0.70, -78.61 379.92 80




NCC Satellite Simultaneous Nadir Overpasses (SNOs) Prediction Service
